World > North America > United States > Mississippi > Locum

Hourly Locum, MS Regional Weather

Feedback E-mail the Weather

Quick WX

Locum, MS Weather Maps

°F °C°F °C
Locum Weather Map
UTC Time: 8/8/2022, 05:22
Your Time:

Locum, MS Regional Weather

Expires:202208080600;;657033
ASUS44 KJAN 080510
RWRMS 

MISSISSIPPI HOURLY WEATHER ROUNDUP
NATIONAL WEATHER SERVICE JACKSON MS
1200 AM CDT MON AUG 08 2022

NOTE: "FAIR: INDICATES FEW OR NO CLOUDS BELOW 12,000 FEET WITH NO
SIGNIFICANT WEATHER AND/OR OBSTRUCTIONS TO VISIBILITY.


MSZ003>006-009-014>017-022>024-029>033-037>039-080600-
NORTHEAST MISSISSIPPI
  
CITY           SKY/WX    TMP DP  RH WIND       PRES   REMARKS
ABERDEEN       FAIR      75  73  94 CALM      30.15F                  
COLUMBUS AFB   CLEAR     75  72  89 CALM      30.10F                  
CORINTH        PTCLDY    77  72  83 S7        30.13S                  
GOLDN TRIANGLE PTCLDY    75  73  93 SE3       30.14F                  
STARKVILLE     FAIR     N/A N/A N/A CALM      30.12F                  
TUPELO         PTCLDY    79  72  79 SE6       30.13F                  
$$


SKY/WX - Weather  TMP - Temperature  DP - Dew Point  RH - Humidity
WIND - Wind Direction/Speed PRES - Barometric Pressure VSB - Visibility
WCI - Wind Chill Index E13G22 Wind - East Wind 13 mph/Gusts of 22 mph

Trending Headlines

Locum Radar Loop



Locum Quick Facts


National Two Day Weather Forecast


E-mail the Locum Weather Forecast

Voice your opinion or tell us about page issues...